TimeEDT,TemperatureF,Dew PointF,Humidity,Sea Level PressureIn,VisibilityMPH,Wind Direction,Wind SpeedMPH,Gust SpeedMPH,PrecipitationIn,Events,Conditions,WindDirDegrees,DateUTC
12:54 AM,63.0,60.1,90,29.92,10.0,South,8.1,-,N/A,,Mostly Cloudy,190,2013-07-28 04:54:00
1:51 AM,64.4,60.8,88,29.93,10.0,SSW,5.8,-,N/A,,Mostly Cloudy,200,2013-07-28 05:51:00
1:54 AM,63.0,60.1,90,29.90,10.0,South,5.8,-,N/A,,Mostly Cloudy,190,2013-07-28 05:54:00
2:15 AM,62.6,60.8,94,29.93,10.0,South,3.5,-,N/A,,Mostly Cloudy,170,2013-07-28 06:15:00
2:41 AM,62.6,60.8,94,29.93,10.0,South,4.6,-,N/A,,Overcast,170,2013-07-28 06:41:00
2:54 AM,63.0,60.1,90,29.90,10.0,South,4.6,-,N/A,,Overcast,180,2013-07-28 06:54:00
3:54 AM,63.0,60.1,90,29.90,10.0,Calm,Calm,-,N/A,,Overcast,0,2013-07-28 07:54:00
4:54 AM,62.1,61.0,96,29.90,7.0,Calm,Calm,-,N/A,,Overcast,0,2013-07-28 08:54:00
5:04 AM,62.6,60.8,94,29.93,7.0,WSW,3.5,-,N/A,,Mostly Cloudy,250,2013-07-28 09:04:00
5:45 AM,62.6,60.8,94,29.94,6.0,West,6.9,-,0.00,Rain,Light Rain,270,2013-07-28 09:45:00
5:54 AM,61.0,60.1,97,29.92,6.0,West,4.6,-,0.01,Rain,Light Rain,260,2013-07-28 09:54:00
6:01 AM,60.8,60.8,100,29.95,7.0,WSW,6.9,-,0.00,Rain,Light Rain,250,2013-07-28 10:01:00
6:08 AM,60.8,60.8,100,29.96,7.0,WSW,6.9,-,0.00,Rain,Light Rain,250,2013-07-28 10:08:00
6:24 AM,60.8,59.0,94,29.97,2.5,SW,10.4,-,0.05,Rain,Rain,230,2013-07-28 10:24:00
6:33 AM,60.8,57.2,88,29.98,6.0,SW,9.2,-,0.05,Rain,Light Rain,230,2013-07-28 10:33:00
6:54 AM,60.1,55.9,86,29.95,5.0,SSW,6.9,-,0.07,Rain,Light Rain,200,2013-07-28 10:54:00
7:54 AM,60.1,55.9,86,29.94,10.0,South,5.8,-,0.01,,Overcast,190,2013-07-28 11:54:00
8:54 AM,59.0,55.9,90,29.95,10.0,SW,8.1,-,N/A,,Clear,230,2013-07-28 12:54:00
9:54 AM,63.0,57.0,81,29.94,10.0,SW,9.2,-,N/A,,Partly Cloudy,230,2013-07-28 13:54:00
10:36 AM,64.4,57.2,77,29.97,10.0,West,10.4,-,N/A,,Mostly Cloudy,260,2013-07-28 14:36:00
10:46 AM,64.4,57.2,77,29.97,10.0,WSW,12.7,-,N/A,,Mostly Cloudy,240,2013-07-28 14:46:00
10:54 AM,66.9,57.0,70,29.94,10.0,WSW,12.7,-,N/A,,Partly Cloudy,250,2013-07-28 14:54:00
11:54 AM,68.0,54.0,61,29.95,10.0,WSW,10.4,17.3,N/A,,Scattered Clouds,250,2013-07-28 15:54:00
12:54 PM,70.0,52.0,53,29.96,10.0,WSW,11.5,-,N/A,,Partly Cloudy,240,2013-07-28 16:54:00
1:54 PM,70.0,51.1,51,29.96,10.0,WSW,11.5,-,N/A,,Scattered Clouds,240,2013-07-28 17:54:00
2:54 PM,72.0,46.9,41,29.95,10.0,WSW,16.1,21.9,N/A,,Scattered Clouds,250,2013-07-28 18:54:00
3:54 PM,71.1,48.0,44,29.94,10.0,WSW,12.7,18.4,N/A,,Mostly Cloudy,240,2013-07-28 19:54:00
4:54 PM,73.0,48.0,41,29.94,10.0,WSW,15.0,21.9,N/A,,Mostly Cloudy,250,2013-07-28 20:54:00
5:54 PM,71.1,50.0,47,29.95,10.0,West,10.4,-,N/A,,Clear,260,2013-07-28 21:54:00
6:54 PM,68.0,52.0,56,29.97,10.0,West,6.9,-,N/A,,Partly Cloudy,280,2013-07-28 22:54:00
7:54 PM,66.0,54.0,65,29.99,10.0,West,8.1,-,N/A,,Clear,260,2013-07-28 23:54:00
8:54 PM,63.0,48.9,60,30.01,10.0,West,6.9,-,N/A,,Clear,260,2013-07-29 00:54:00
9:54 PM,61.0,51.1,70,30.04,10.0,WNW,9.2,-,N/A,,Clear,300,2013-07-29 01:54:00
10:54 PM,57.9,51.1,78,30.05,10.0,NW,5.8,-,N/A,,Clear,310,2013-07-29 02:54:00
11:54 PM,57.9,51.1,78,30.06,10.0,WNW,3.5,-,N/A,,Scattered Clouds,290,2013-07-29 03:54:00